Location: Lichtensteig
(47.3376°N, 9.0841°E)
Time: 07:17:13
(UTC+00:00)

CSL-04 Debris - Pass Details

Date: 03 March 2021
Orbit: 826 x 848 km, 98.9° (Epoch: 11 April)

Event Time Altitude Azimuth Distance (km) Brightness Sun altitude
Rises 18:23:02 0° 163° (SSE) 3,371 7.1 -12.8°
Reaches altitude 10° 18:25:22 10° 164° (SSE) 2,444 6.4 -13.2°
Maximum altitude 18:30:48 88° 251° (WSW) 848 4.2 -14.1°
Drops below altitude 10° 18:36:19 10° 345° (NNW) 2,476 6.9 -15.1°
Sets 18:38:42 0° 346° (NNW) 3,418 7.7 -15.5°
